Location: Boca do Mato
(22.9085°S, 43.2930°W)
Time: 22:31:31
(UTC+00:00)

Cosmos 1689 Rocket - Pass Details

Date: 14 July 2020
Orbit: 365 x 382 km, 97.5° (Epoch: 10 August)

Event Time Altitude Azimuth Distance (km) Brightness Sun altitude
Rises 07:58:09 0° 160° (SSE) 2,285 6.0 -21.6°
Reaches altitude 10° 08:00:12 10° 153° (SSE) 1,424 5.1 -21.2°
Maximum altitude 08:03:06 42° 80° (E) 572 3.4 -20.5°
Drops below altitude 10° 08:05:57 10° 7° (N) 1,406 5.2 -19.9°
Sets 08:07:57 0° 0° (N) 2,252 6.2 -19.4°
